Location: Bergnershof
(48.9468°N, 10.9431°E)
Time: 05:02:43
(UTC+00:00)

Cosmos 2237 - Pass Details

Date: 03 March 2021
Orbit: 844 x 857 km, 70.9° (Epoch: 11 April)

Event Time Altitude Azimuth Distance (km) Brightness Sun altitude
Rises 18:07:07 0° 193° (SSW) 3,409 7.5 -11.3°
Reaches altitude 10° 18:09:36 10° 190° (S) 2,478 6.7 -11.7°
Maximum altitude 18:15:10 58° 112° (ESE) 992 4.3 -12.6°
Drops below altitude 10° 18:20:47 10° 35° (NE) 2,500 6.4 -13.6°
Sets 18:23:17 0° 32° (NNE) 3,441 7.1 -14.0°
